Flag for Germany Weather past 2 weeks in Apolda, Thuringia, Germany

Now
48 °F

Passing clouds.


Feels Like: 47 °F
Forecast: 50 / 76 °F
Wind: 5 mph from Northwest

Location: Erfurt-Bindersleben

Current Time: Jul 31, 2015 at 3:28:38 AM

Latest Report: Jul 31, 2015 at 3:00 AM


Visibility: 37 mi

Pressure: 30.09 "Hg

Humidity: 92%

Dew point: 46 °F

Location of ApoldaLocation

Historic Weather in Apolda — Graph

°F

Apolda temperature yesterday

Maximum temperature yesterday: 66 °F (at 4:00 PM)
Minimum temperature yesterday: 49 °F (at 5:00 AM)
Average temperature yesterday: 58 °F

Past Weeks' High & Low Weather Summary

 TemperatureHumidityPressure
High91 °F (Jul 17, 6:00 PM)100% (Jul 19, 7:00 AM)30.09 "Hg (Jul 19, 7:00 AM)
Low49 °F (Jul 30, 5:00 AM)26% (Jul 17, 4:00 PM)29.60 "Hg (Jul 25, 6:00 AM)
Average67 °F67%29.87 "Hg
* Reported Jul 16 2:00 AM — Jul 31 2:00 AM, Apolda, Weather by CustomWeather, © 2015

Note: Actual official high and low records may vary slightly from our data, if they occured in-between our weather recording intervals... More about our weather records

Advertising

Apolda weather history for previous 24 hours

 ConditionsComfort  
Time TempWeatherWind HumidityBarometerVisibility
2:00 AM
Fri, Jul 31
50 °FPassing clouds.5 mph88%30.08 "Hg43 mi
1:00 AM51 °FPassing clouds.3 mph83%30.07 "Hg43 mi
11:00 PM
Thu, Jul 30
54 °FPassing clouds.5 mph74%30.04 "Hg43 mi
10:00 PM54 °FPassing clouds.3 mph71%30.03 "Hg43 mi
9:00 PM58 °FPartly sunny.3 mph65%30.01 "Hg43 mi
8:00 PM62 °FScattered clouds.5 mph51%29.98 "Hg43 mi
7:00 PM62 °FPartly sunny.7 mph57%29.97 "Hg43 mi
6:00 PM66 °FPartly sunny.8 mph43%29.94 "Hg43 mi
5:00 PM64 °FPartly sunny.9 mph48%29.94 "Hg37 mi
4:00 PM66 °FPartly sunny.7 mph43%29.93 "Hg43 mi
3:00 PM65 °FPartly sunny.8 mph40%29.93 "Hg43 mi
2:00 PM63 °FPartly sunny.7 mph48%29.94 "Hg43 mi
1:00 PM63 °FPartly sunny.8 mph48%29.93 "Hg37 mi
12:00 PM62 °FScattered clouds.8 mph50%29.93 "Hg31 mi
10:00 AM58 °FPartly sunny.9 mph63%29.93 "Hg31 mi
9:00 AM56 °FPartly sunny.9 mph69%29.93 "Hg31 mi
8:00 AM54 °FPassing clouds.8 mph74%29.92 "Hg31 mi
7:00 AM51 °FPassing clouds.7 mph78%29.92 "Hg37 mi
5:00 AM49 °FPassing clouds.6 mph78%29.91 "Hg37 mi
4:00 AM50 °FClear.6 mph76%29.91 "Hg37 mi
3:00 AM52 °FClear.7 mph73%29.90 "Hg37 mi
Weather by CustomWeather, © 2015

See weather overviewHow to use our weather pages